STARLINK-1305, 45377

Orbit data source: Space-Track

STARLINK-1305, 45377 is a payload satellite owned by SpaceX/Seattle (US) in LEO that was launched on Wed, 18 Mar 2020 UTC via an FALCON 9 launch vehicle from the Air Force Eastern Test Range (AFETR). Payload-class satellites include a variety of spacecraft equipped with specific instruments for various scientific and technological missions. These include communications satellites like Starlink; space stations such as the ISS; scientific satellites like the Hubble; Earth observation satellites from companies like Planet Labs, Umbra, and HawkEye 360; GPS; miniature CubeSats for education and research; and military/defense satellites.

Loading next visibility...
Identifier
45377, 2020-019T
Orbit
LEO
Country
Flag of USUS
Related business
Manufacturer
SpaceX/Seattle
Mission
Operational Commercial Communications
Bus & Motor
STARLINK, Unknown motor
Mass
260 kg wet, ~248 kg dry
Launch date (UTC)
2020-03-18 (5 years ago)
Launch vehicle
FALCON 9
Launch site
Air Force Eastern Test Range (AFETR)
Object type
Payload
Rocket body
Debris
Shape & HBR
Box + 1 Pan, 4.4 m
Radar Cross Section
13.562 m², Large (>1 m²)

Expand to show TLE details & history
Last TLE update: 10 hours ago

TLE from 10 hours ago
0 STARLINK-1305
1 45377U 20019T   25259.19600513  .00003809  00000-0  27447-3 0  9993
2 45377  53.0533 229.9494 0001571  87.2061 272.9108 15.06400916303438
Epoch: 2025-09-16T04:42Z
TLE epoch observation values (Epoch: 2025-09-16T04:42:14.843Z)
Latitude
0.00001°
Longitude
163.99778°
Altitude
548.033 km
Speed
7.589 km/s
True Right ascension
15h 19m 47s
True Declination
0° 00' 00"
Sunlit
Object was in daylight at epoch
Visualization orbit readout
Latitude
Unknown
Longitude
Unknown
Altitude
Unknown
Speed
Unknown
Apparent Right ascension
Unknown
Apparent Declination
Unknown
Sunlit
N/A
Visualization observer readout
Local Sidereal Time
07:08:54
Azimuth
Unknown
Elevation
Unknown
Doppler factor
Unknown
Orbital elements
Apogee altitude
548.568 km
Perigee altitude
546.392 km
Semi-major axis
6,925.617 km
Eccentricity
0.00016
Inclination
53.0533°
RAAN
229.9494°
Arg. of periapsis
87.2061°
True anomaly
272.89282°
Mean anomaly
272.9108°
Eccentric anomaly
272.90181°
Mean motion
3.76578 °/min
Orbital period
95.6 mins
BSTAR
0.00027447
Loading maneuver chart data...
Computing Atmospheric mass density...
Loading historical data...
Loading historical data...
Loading historical data...
Loading historical data...
Loading historical data...
Loading historical data...
Loading historical data...

Documentation

Showing up to 5 results
|